Retour au catalogue

IUS DEB

ActifHEO
NORAD 43366·DEBRIS·🇺🇸 United States

Lancé Jul 23, 1999 depuis Cape Canaveral Space Force Station

Loading…

Prochains Passages (prochaines 24 heures)

TLE

FraisSource: Space-Track

Époque: Sep 13, 2026, 23:37 UTC

1 43366U 99040P   26256.98444922  .00000979  00000-0  41127-2 0  9999
2 43366  28.1242 165.6104 3831799 172.2191 196.1278  7.03787771274520

Suivez IUS DEB en temps réel avec AllMySat

Download on the App Store